Weather History for KMDD - September, 2014

Change the Weather History Date:

Monday, September 1, 2014

  Actual Average (KMAF) Record (KMAF)
Temperature  
Mean Temperature 91 °F 79 °F  
Max Temperature 104 °F 91 °F 104 °F (1959)
Min Temperature 78 °F 66 °F 55 °F (1987)
Cooling Degree Days 26 14  
Month to date cooling degree days 14  
Year to date cooling degree days 1898  
Growing Degree Days 41 (Base 50)    
Moisture  
Dew Point 56 °F    
Average Humidity 31    
Maximum Humidity 60    
Minimum Humidity 15    
Precipitation  
Precipitation 0.00 in 0.06 in 1.14 in (1966)
Month to date precipitation 0.06  
Year to date precipitation 9.78  
Sea Level Pressure  
Sea Level Pressure 29.89 in    
Wind  
Wind Speed 11 mph (South)    
Max Wind Speed 17 mph    
Max Gust Speed 24 mph    
Visibility 10 miles    
Events      
T = Trace of Precipitation, MM = Missing Value Source: NWS Daily Summary

Daily Weather History Graph

Daily Weather History Graph

Search for Another Location

Airport or City:

Trip Planner

Search our weather history database for the weather conditions in past years. The results will help you decide how hot, cold, wet, or windy it might be!

Date:

Astronomy

Sep. 01, 2014 Rise Set
Actual Time 7:23 AM CDT 8:12 PM CDT
Civil Twilight 6:58 AM CDT 8:37 PM CDT
Nautical Twilight 6:29 AM CDT 9:06 PM CDT
Astronomical Twilight 5:59 AM CDT 9:36 PM CDT
Moon 1:47 PM CDT No Moon Set
Length of Visible Light 13h 38m
Length of Day
12h 48m
Waxing Crescent, 42% of the Moon is Illuminated
Sep 1
Waxing Crescent
Sep 2
First Quarter
Sep 8
Full
Sep 15
Last Quarter
Sep 24
New

Hourly Weather History & Observations

Time (CDT) Temp. Heat Index Dew Point Humidity Pressure Visibility Wind Dir Wind Speed Gust Speed Precip Events Conditions
7:20 AM 78.4 °F - 63.0 °F 59% 29.92 in 10.0 mi South 12.7 mph 19.6 mph N/A   Clear
7:35 AM 78.1 °F - 63.1 °F 60% 29.93 in 10.0 mi South 11.5 mph - N/A   Clear
8:55 AM 79.9 °F - 64.6 °F 59% 29.94 in 10.0 mi South 11.5 mph 23.0 mph N/A   Clear
12:15 PM 93.4 °F 92.8 °F 59.7 °F 32% 29.94 in 10.0 mi SSW 11.5 mph 17.3 mph N/A   Clear
12:35 PM 95.0 °F 94.4 °F 59.0 °F 30% 29.93 in 10.0 mi SSW 8.1 mph - N/A   Clear
12:50 PM 96.1 °F 95.2 °F 58.5 °F 28% 29.93 in 10.0 mi SSW 11.5 mph 17.3 mph N/A   Clear
2:30 PM 99.9 °F 97.7 °F 53.4 °F 21% 29.90 in 10.0 mi South 3.5 mph - N/A   Clear
3:55 PM 103.5 °F - 48.6 °F 16% 29.86 in 10.0 mi South 9.2 mph 17.3 mph N/A   Clear
4:10 PM 102.0 °F - 49.6 °F 17% 29.85 in 10.0 mi SSW 3.5 mph - N/A   Clear
4:30 PM 103.6 °F - 49.6 °F 16% 29.85 in 10.0 mi SSE 4.6 mph - N/A   Scattered Clouds
5:15 PM 103.6 °F - 47.7 °F 15% 29.84 in 10.0 mi SSE 5.8 mph - N/A   Scattered Clouds
5:35 PM 104.0 °F - 48.7 °F 16% 29.84 in 10.0 mi South 9.2 mph - N/A   Clear
6:35 PM 101.8 °F - 52.9 °F 19% 29.83 in 10.0 mi South 13.8 mph 17.3 mph N/A   Scattered Clouds
8:35 PM 96.1 °F 94.5 °F 55.6 °F 26% 29.85 in 10.0 mi SE 16.1 mph 21.9 mph N/A   Clear
8:50 PM 95.4 °F 94.2 °F 57.0 °F 28% 29.86 in 10.0 mi SSE 16.1 mph 21.9 mph N/A   Clear
9:40 PM 92.5 °F 91.6 °F 58.3 °F 32% 29.89 in 10.0 mi SSE 15.0 mph - N/A   Clear
10:35 PM 89.8 °F 88.9 °F 58.5 °F 35% 29.91 in 10.0 mi SSE 17.3 mph 24.2 mph N/A   Clear
10:55 PM 89.1 °F 88.2 °F 59.2 °F 36% 29.92 in 10.0 mi South 16.1 mph 21.9 mph N/A   Clear
11:55 PM 87.6 °F 86.9 °F 59.4 °F 38% 29.92 in 10.0 mi South 12.7 mph 20.7 mph N/A   Clear